Terminal Aerodrome Forecast
Issued by NWS

Home | Current Version | Previous Version | Text Only | Print | Product List | Glossary On
Versions: 1 2 3 4 5 6 7 8 9 10 11 12 13 14 15 16 17 18 19 20
000
FTUS42 KTAE 280332 AAA
TAFECP
TAF AMD
KECP 280332Z 2804/2824 18006KT P6SM OVC008
     FM280600 VRB02KT 1/2SM FG BKN001
     FM281300 VRB02KT 3SM BR SCT001
     FM281400 19006KT P6SM BKN250=

USA.gov is the U.S. government's official web portal to all federal, state and local government web resources and services.